Russell, KS

5:24 AM CDT on July 23, 2017 (GMT -0500)
Russell Municipal

Weather History for KRSL - November, 2012

Change the Weather History Date:

Wednesday, November 28, 2012

  Actual Average Record
Temperature  
Mean Temperature 38 °F -  
Max Temperature 55 °F 44 °F 73 °F (2014)
Min Temperature 21 °F 21 °F -5 °F (1958)
Degree Days  
Heating Degree Days 27    
Moisture  
Dew Point 25 °F    
Average Humidity 67    
Maximum Humidity 89    
Minimum Humidity 35    
Precipitation  
Precipitation 0.00 in - - ()
Sea Level Pressure  
Sea Level Pressure 30.25 in    
Wind  
Wind Speed 7 mph (SE)    
Max Wind Speed 15 mph    
Max Gust Speed -    
Visibility 10 miles    
Events      
Averages and records for this station are not official NWS values.
T = Trace of Precipitation, MM = Missing Value Source: NWS Daily Summary

Daily Weather History Graph

Daily Weather History Graph

Search for Another Location

Airport or City:

Trip Planner

Search our weather history database for the weather conditions in past years. The results will help you decide how hot, cold, wet, or windy it might be!

Date:

Astronomy

Nov. 28, 2012 Rise Set
Actual Time 7:32 AM CST 5:14 PM CST
Civil Twilight 7:03 AM CST 5:43 PM CST
Nautical Twilight 6:30 AM CST 6:16 PM CST
Astronomical Twilight 5:58 AM CST 6:48 PM CST
Moon 5:30 PM CST (11/28) 7:31 AM CST (11/28)
Length of Visible Light 10h 40m
Length of Day
9h 42m
Full, 100% of the Moon is Illuminated
Nov 28
Full
Dec 6
Last Quarter
Dec 13
New
Dec 19
First Quarter
Dec 28
Full

Hourly Weather History & Observations

Time (CST) Temp. Windchill Dew Point Humidity Pressure Visibility Wind Dir Wind Speed Gust Speed Precip Events Conditions
12:53 AM 28.0 °F 20.0 °F 21.0 °F 75% 30.30 in 10.0 mi NNW 8.1 mph - N/A   Clear
1:53 AM 28.9 °F 23.9 °F 21.9 °F 75% 30.30 in 10.0 mi NNE 4.6 mph - N/A   Clear
2:53 AM 27.0 °F 20.5 °F 19.9 °F 75% 30.32 in 10.0 mi NE 5.8 mph - N/A   Clear
3:53 AM 25.0 °F 20.7 °F 19.9 °F 81% 30.32 in 10.0 mi ENE 3.5 mph - N/A   Clear
4:53 AM 24.1 °F 18.2 °F 19.9 °F 84% 30.32 in 10.0 mi NE 4.6 mph - N/A   Clear
5:53 AM 23.0 °F 17.0 °F 19.9 °F 88% 30.35 in 10.0 mi NNE 4.6 mph - N/A   Clear
6:53 AM 21.0 °F 16.2 °F 18.0 °F 88% 30.36 in 10.0 mi North 3.5 mph - N/A   Clear
7:53 AM 21.9 °F 15.7 °F 19.0 °F 89% 30.37 in 8.0 mi NE 4.6 mph - N/A   Clear
8:53 AM 28.0 °F - 24.1 °F 85% 30.37 in 8.0 mi Calm Calm - N/A   Clear
9:53 AM 34.0 °F - 26.1 °F 73% 30.36 in 10.0 mi Calm Calm - N/A   Clear
10:53 AM 39.0 °F 34.0 °F 26.1 °F 60% 30.34 in 10.0 mi SSE 6.9 mph - N/A   Clear
12:53 PM 50.0 °F - 27.0 °F 41% 30.26 in 10.0 mi South 8.1 mph - N/A   Clear
1:53 PM 54.0 °F - 28.0 °F 37% 30.23 in 10.0 mi South 13.8 mph - N/A   Clear
2:53 PM 55.0 °F - 28.0 °F 35% 30.19 in 10.0 mi South 15.0 mph - N/A   Clear
3:53 PM 54.0 °F - 28.9 °F 38% 30.17 in 10.0 mi South 13.8 mph - N/A   Clear
4:53 PM 48.9 °F - 28.0 °F 44% 30.17 in 10.0 mi SSE 6.9 mph - N/A   Clear
5:53 PM 44.1 °F 38.6 °F 28.0 °F 53% 30.17 in 10.0 mi South 10.4 mph - N/A   Clear
6:53 PM 39.9 °F 33.4 °F 28.0 °F 63% 30.17 in 10.0 mi South 10.4 mph - N/A   Clear
7:53 PM 39.0 °F 32.8 °F 28.0 °F 65% 30.16 in 10.0 mi South 9.2 mph - N/A   Clear
8:53 PM 37.9 °F 32.1 °F 28.9 °F 70% 30.16 in 10.0 mi SSE 8.1 mph - N/A   Clear
9:53 PM 36.0 °F 28.0 °F 28.0 °F 73% 30.13 in 10.0 mi SSE 11.5 mph - N/A   Clear
10:53 PM 35.1 °F 29.3 °F 28.0 °F 76% 30.11 in 10.0 mi South 6.9 mph - N/A   Clear
11:53 PM 32.0 °F 23.6 °F 27.0 °F 82% 30.09 in 10.0 mi South 10.4 mph - N/A   Clear